Total_Precipitation_Accumulation
2.36 2.64 3.52 4.49 5.20 4.05 3.01 2.44 2.07 1.84 1.48 1.10 0.90 0.93 1.29 1.80 2.16 2.28 2.09 1.82 1.15 1.06 1.22 1.75 2.09 1.98 1.84 1.80 1.77 1.85 1.88 1.84 1.88 1.98 1.99 1.88 2.05 2.17 2.18 2.11 2.02 2.02 1.97 1.94 1.92 1.92 1.95 1.79 1.85
2.02 2.83 4.14 5.14 4.48 3.18 2.73 2.18 1.89 1.59 1.20 0.90 0.77 0.72 0.88 0.73 0.69 1.18 2.18 2.09 1.15 0.92 1.07 1.54 2.12 2.03 1.95 1.94 1.95 2.05 2.02 1.83 1.77 1.78 1.75 1.77 1.95 2.16 2.28 2.28 2.16 2.19 2.13 1.95 1.81 1.76 1.89 1.83 1.86
2.34 3.30 4.59 4.70 3.31 2.60 2.58 1.98 1.47 1.07 0.79 0.84 0.85 0.74 0.83 1.00 1.11 1.60 2.07 1.47 1.06 0.96 1.04 1.62 2.23 2.06 1.97 2.00 2.15 2.15 1.99 1.90 1.79 1.76 1.76 1.75 1.92 2.14 2.27 2.15 2.17 2.29 2.27 2.07 1.93 1.84 1.94 1.92 1.93
2.63 3.78 4.16 3.54 2.68 2.06 1.79 1.54 1.18 1.00 0.71 0.49 0.66 0.87 0.78 1.04 1.25 1.49 1.43 1.03 0.82 0.86 0.96 1.47 2.16 2.03 1.90 1.96 2.19 2.10 1.92 1.96 1.85 1.78 1.83 1.95 2.18 2.39 2.39 2.28 2.40 2.35 2.32 2.17 2.07 1.95 1.97 1.97 1.97
2.93 3.76 3.75 3.32 2.49 2.13 1.59 1.25 1.05 1.02 0.83 0.55 0.55 0.88 1.03 1.39 1.35 1.34 1.25 1.04 0.85 0.86 0.91 1.24 1.87 1.91 1.83 1.89 2.02 1.97 2.01 2.07 1.92 1.84 1.88 2.04 2.21 2.35 2.48 2.46 2.50 2.49 2.45 2.30 2.13 2.02 1.91 1.90 1.96
3.35 3.42 3.54 3.29 2.69 2.35 1.80 1.32 0.96 0.89 0.76 0.60 0.59 0.90 1.26 1.68 1.57 1.52 1.31 1.21 1.10 0.97 0.89 1.05 1.59 1.75 1.75 1.88 1.91 1.91 1.98 1.93 1.85 1.89 1.95 1.99 2.08 2.21 2.30 2.34 2.41 2.40 2.38 2.37 2.23 2.14 1.98 1.94 1.86
3.15 3.09 2.83 2.39 2.53 2.64 1.89 1.19 1.09 1.03 1.00 0.85 0.61 0.95 1.35 1.79 1.64 1.38 1.37 1.42 1.49 1.34 1.16 1.14 1.24 1.34 1.53 1.78 1.89 2.00 2.04 1.84 1.73 1.72 1.77 1.80 1.87 1.98 2.01 2.10 2.19 2.19 2.27 2.28 2.15 2.06 2.03 2.02 1.91
2.49 2.59 2.39 2.30 2.53 2.68 1.63 1.04 0.89 0.88 0.93 0.60 0.52 0.87 1.13 1.36 1.46 1.41 1.38 1.44 1.41 1.34 1.28 1.20 1.21 1.18 1.22 1.40 1.78 2.08 2.14 1.97 1.73 1.65 1.64 1.76 1.71 1.74 1.84 1.87 2.11 2.21 2.24 2.27 2.22 2.12 2.01 2.05 2.03
2.10 2.48 2.58 2.53 2.42 2.13 1.28 0.96 0.78 0.57 0.59 0.52 0.42 0.63 0.82 0.84 1.11 1.32 1.34 1.38 1.34 1.25 1.27 1.20 1.20 1.23 1.31 1.39 1.54 1.92 2.12 2.10 1.67 1.43 1.46 1.46 1.36 1.42 1.51 1.56 2.04 2.22 2.43 2.49 2.39 2.20 2.05 1.95 1.93
2.16 2.44 2.30 1.86 1.64 1.35 1.02 0.88 0.72 0.75 0.84 0.72 0.56 0.63 0.78 0.85 0.98 1.21 1.27 1.18 1.12 1.10 1.11 1.11 1.12 1.11 1.12 1.16 1.55 1.88 1.74 1.81 1.47 1.37 1.32 1.31 1.38 1.42 1.28 1.45 1.93 2.16 2.36 2.47 2.36 2.21 1.95 1.72 1.55
1.82 1.99 1.63 1.39 1.17 0.94 0.88 0.83 0.64 0.77 0.98 0.76 0.57 0.64 0.78 0.89 1.02 1.09 1.15 1.07 0.97 0.97 0.89 0.84 0.89 0.86 0.87 0.99 1.17 1.51 1.78 1.77 1.70 1.63 1.51 1.51 1.39 1.25 1.25 1.39 1.56 1.77 1.97 2.02 2.06 1.98 1.74 1.56 1.48
1.58 1.51 1.31 1.19 0.87 0.91 0.91 0.78 0.70 0.68 0.73 0.53 0.47 0.54 0.73 0.91 1.04 1.02 1.04 1.05 0.97 1.01 1.00 0.82 0.74 0.75 0.75 0.80 0.97 1.23 1.46 1.55 1.54 1.45 1.32 1.51 1.47 1.28 1.32 1.52 1.64 1.69 1.87 2.13 2.19 2.11 1.86 1.64 1.49
1.47 1.52 1.23 1.00 0.86 0.91 0.86 0.79 0.68 0.68 0.58 0.46 0.45 0.59 0.82 1.02 1.07 1.06 1.00 1.00 1.01 1.02 1.08 0.95 0.75 0.70 0.76 0.80 0.86 0.93 1.16 1.27 1.27 1.40 1.30 1.33 1.36 1.24 1.22 1.33 1.59 1.68 1.75 2.00 2.12 1.99 1.91 1.87 1.77
1.29 1.25 1.19 1.02 0.92 0.94 0.95 0.78 0.67 0.82 0.70 0.58 0.64 0.76 0.93 1.04 1.03 0.98 0.91 0.88 0.88 0.90 0.96 0.92 0.81 0.78 0.79 0.76 0.72 0.73 0.77 0.97 1.00 1.00 0.94 1.12 1.27 1.27 1.30 1.26 1.43 1.71 1.80 1.87 1.90 1.85 1.88 1.85 1.80
1.07 1.17 1.32 1.22 1.13 1.09 0.98 1.06 0.83 0.85 0.82 0.70 0.69 0.77 0.98 0.94 0.92 0.87 0.80 0.73 0.70 0.77 0.81 0.85 0.87 0.85 0.82 0.83 0.81 0.76 0.76 0.85 0.94 0.98 0.95 1.05 1.17 1.28 1.28 1.19 1.30 1.56 1.78 1.84 1.85 1.81 1.89 1.78 1.63
1.25 1.56 1.81 1.49 1.24 1.20 1.12 1.29 0.93 0.91 0.86 0.75 0.72 0.72 0.82 0.72 0.72 0.73 0.68 0.62 0.59 0.60 0.66 0.73 0.73 0.80 0.83 0.86 0.91 0.87 0.90 0.91 0.91 0.96 0.93 0.95 1.11 1.26 1.36 1.29 1.26 1.45 1.71 1.96 2.13 2.01 1.96 1.89 1.75
1.60 1.69 1.63 1.53 1.20 1.20 1.14 1.19 1.00 0.86 0.81 0.71 0.69 0.70 0.68 0.61 0.57 0.59 0.58 0.54 0.47 0.48 0.48 0.53 0.61 0.71 0.79 0.85 0.94 0.91 0.94 1.08 1.14 1.03 0.94 0.99 1.10 1.19 1.41 1.53 1.46 1.51 1.74 1.87 1.98 2.04 1.92 1.89 1.81
1.30 1.28 1.29 1.38 1.14 1.05 1.03 0.96 0.97 0.81 0.66 0.62 0.61 0.60 0.57 0.54 0.48 0.49 0.49 0.49 0.45 0.44 0.43 0.45 0.54 0.59 0.61 0.76 0.92 1.02 0.99 1.05 1.26 1.31 1.30 1.34 1.40 1.41 1.55 1.68 1.69 1.72 1.85 1.88 2.07 2.33 2.16 1.94 1.87
0.94 0.95 1.01 0.95 0.81 0.91 0.92 0.87 0.92 0.84 0.67 0.55 0.54 0.57 0.52 0.49 0.50 0.44 0.40 0.47 0.47 0.41 0.38 0.45 0.52 0.55 0.55 0.67 0.81 0.93 1.04 1.19 1.37 1.43 1.48 1.63 1.69 1.69 1.82 1.91 1.97 1.93 1.87 1.96 2.16 2.60 2.56 2.23 1.98
0.86 0.86 0.90 0.81 0.70 0.75 0.84 0.89 0.87 0.78 0.70 0.59 0.53 0.45 0.42 0.42 0.40 0.36 0.35 0.36 0.38 0.39 0.37 0.40 0.52 0.60 0.64 0.70 0.84 1.03 1.28 1.36 1.51 1.71 1.69 1.70 1.76 1.82 1.89 2.08 2.19 2.15 2.15 2.23 2.31 2.62 2.82 2.57 2.36
0.83 0.78 0.73 0.76 0.73 0.73 0.79 1.01 0.93 0.84 0.68 0.57 0.49 0.40 0.34 0.36 0.35 0.28 0.31 0.33 0.34 0.36 0.43 0.47 0.59 0.78 0.95 1.02 1.24 1.56 1.83 1.89 1.84 1.87 1.93 1.92 1.93 2.01 1.98 2.04 2.23 2.25 2.24 2.32 2.54 2.86 3.21 3.18 2.86
0.84 0.60 0.53 0.65 0.81 0.93 0.77 1.12 0.93 0.82 0.73 0.57 0.48 0.43 0.35 0.39 0.43 0.34 0.32 0.35 0.33 0.38 0.51 0.69 0.91 1.20 1.42 1.51 1.68 1.95 2.07 2.11 2.04 2.04 2.05 2.08 2.00 1.92 1.93 2.01 2.18 2.35 2.48 2.62 2.69 2.67 3.11 3.45 3.26
0.66 0.55 0.54 0.64 0.77 0.82 0.68 0.84 0.82 0.68 0.75 0.64 0.57 0.52 0.46 0.47 0.47 0.48 0.47 0.52 0.53 0.63 0.84 1.18 1.46 1.66 1.78 1.81 1.88 2.10 2.25 2.40 2.43 2.31 2.17 2.12 2.12 2.05 1.96 1.97 2.00 2.05 2.17 2.33 2.48 2.55 2.82 3.08 3.27
0.55 0.63 0.67 0.70 0.82 0.98 0.65 0.66 0.82 0.66 0.63 0.65 0.65 0.57 0.52 0.50 0.53 0.63 0.76 0.90 0.97 1.06 1.27 1.50 1.65 1.79 1.78 1.75 1.77 1.90 2.11 2.27 2.29 2.33 2.31 2.21 2.14 2.06 1.92 1.85 1.90 1.92 1.93 2.08 2.20 2.33 2.62 2.85 3.00
0.62 0.83 1.09 1.13 1.11 0.94 0.54 0.65 0.70 0.49 0.46 0.54 0.59 0.59 0.55 0.52 0.62 0.85 1.02 1.17 1.26 1.37 1.48 1.52 1.49 1.56 1.59 1.55 1.54 1.61 1.71 1.76 1.82 1.96 1.89 1.78 1.69 1.64 1.60 1.52 1.55 1.67 1.74 1.91 1.99 1.96 2.05 2.26 2.49
0.57 0.64 0.97 1.11 0.98 0.82 0.61 0.81 0.71 0.52 0.51 0.45 0.49 0.57 0.65 0.76 0.90 1.03 1.15 1.26 1.31 1.45 1.51 1.46 1.42 1.40 1.33 1.28 1.29 1.28 1.34 1.42 1.44 1.45 1.43 1.36 1.32 1.29 1.25 1.24 1.24 1.30 1.37 1.58 1.80 1.82 1.84 1.93 2.03
0.49 0.50 0.55 0.75 0.72 0.78 0.71 0.81 0.73 0.52 0.51 0.46 0.47 0.57 0.71 0.89 1.14 1.32 1.33 1.25 1.21 1.26 1.34 1.31 1.26 1.20 1.11 1.04 1.07 1.09 1.15 1.19 1.15 1.11 1.07 1.09 1.02 1.02 1.00 1.05 1.14 1.20 1.18 1.27 1.42 1.62 1.69 1.77 1.86
0.40 0.45 0.58 0.88 1.04 1.03 0.83 0.91 0.87 0.66 0.59 0.55 0.58 0.69 0.86 1.02 1.24 1.52 1.63 1.50 1.27 1.10 1.13 1.10 1.09 1.14 1.13 1.08 1.08 1.06 0.98 0.90 0.87 0.87 0.81 0.82 0.88 0.89 0.91 0.91 0.97 1.04 1.07 1.15 1.26 1.30 1.41 1.52 1.70
0.42 0.49 0.61 0.81 0.84 1.12 1.34 1.28 0.95 0.82 0.75 0.73 0.77 0.83 0.91 1.16 1.45 1.57 1.59 1.47 1.32 1.06 0.99 0.98 0.98 1.04 1.12 1.06 1.07 1.05 0.93 0.79 0.74 0.69 0.63 0.65 0.69 0.74 0.74 0.80 0.90 0.94 0.97 1.00 1.00 1.04 1.09 1.17 1.30
0.37 0.47 0.65 0.99 0.98 0.95 1.17 1.19 0.76 0.80 0.90 0.83 0.89 0.97 1.00 1.09 1.15 1.15 1.23 1.24 1.17 1.05 0.98 1.05 1.10 1.12 1.09 1.05 1.02 0.97 0.89 0.78 0.76 0.69 0.61 0.63 0.68 0.71 0.71 0.78 0.84 0.86 0.92 0.95 0.92 0.93 0.98 1.09 1.18